Overview Statistics Trail Chart Weather Telemetry Raw packets
 

This is the latest recevied weather packets stored in our database for station/object 9A7DI-13. If no packets are shown the sender has not sent any weather packets the latest 10 day(s).

<< 28 29 30 31 32 33 34 >>
Time Temp. Humidity Pressure Rain* Wind** Luminosity Snow
1788243407 21.11° C 74% 1029.4 hPa - - - -
1788242807 20.56° C 76% 1029.3 hPa - - - -
1788242207 20.56° C 78% 1029.3 hPa - - - -
1788241607 19.44° C 80% 1029.1 hPa - - - -
1788241007 19.44° C 82% 1028.9 hPa - - - -
1788240407 19.44° C 82% 1028.7 hPa - - - -
1788239807 19.44° C 83% 1028.5 hPa - - - -
1788239207 18.89° C 86% 1028.4 hPa - - - -
1788238607 18.33° C 86% 1028.3 hPa - - - -
1788238007 18.33° C 86% 1028.4 hPa - - - -
1788237407 18.33° C 85% 1028.2 hPa - - - -
1788236807 18.33° C 85% 1028.1 hPa - - - -
1788236207 18.33° C 85% 1028 hPa - - - -
1788235607 18.33° C 84% 1027.8 hPa - - - -
1788235007 18.33° C 83% 1027.6 hPa - - - -
1788234407 18.33° C 83% 1027.4 hPa - - - -
1788233807 18.33° C 81% 1027.3 hPa - - - -
1788233207 18.89° C 81% 1027.3 hPa - - - -
1788232607 18.89° C 81% 1027.4 hPa - - - -
1788232007 18.89° C 82% 1027.4 hPa - - - -
1788231407 18.89° C 82% 1027.3 hPa - - - -
1788230807 18.89° C 84% 1027.4 hPa - - - -
1788230207 18.33° C 85% 1027.4 hPa - - - -
1788229607 18.89° C 83% 1027.2 hPa - - - -
1788229007 18.89° C 82% 1027.2 hPa - - - -

* Rain since midnight (hover to see other rain measurements)
** Current wind speed in m/s (hover to see current wind gust speed)